Location: ??????????
(48.4699°N, 37.9573°E)
Time: 02:07:54
(UTC+00:00)

Cosmos 2297 Rocket - Pass Details

Date: 20 January 2021
Orbit: 841 x 842 km, 71.0° (Epoch: 24 February)

Event Time Altitude Azimuth Distance (km) Brightness Sun altitude
Rises 15:01:12 0° 258° (WSW) 3,394 7.5 -8.8°
Reaches altitude 10° 15:04:22 10° 276° (W) 2,462 5.8 -9.3°
Maximum altitude 15:08:20 19° 321° (NW) 1,899 4.3 -9.9°
Drops below altitude 10° 15:12:20 10° 6° (N) 2,470 4.4 -10.5°
Enters shadow 15:15:21 - 23° (NNE) 3,347 4.9 -11.0°
